User: anonymous   Login
Location: Caltech
(34.1382°N, 118.1253°W)
Time: 06:13:20
(UTC-07:00)
Language:

UOSAT-12 - Orbit

View from above orbital plane
View from above orbital plane
View from above satellite
View from above satellite

Ground track
Ground track

The orbit data is extracted from the following two-line orbital elements,

1 25693U 99021A   16178.18938439 -.00000042  00000-0  12987-4 0  9992
2 25693  64.5552 142.7919 0005921 225.5629 134.4992 14.80659581927451
Epoch (UTC): 26 June 2016 04:32:42
Eccentricity: 0.0005921
inclination: 64.5552°
perigee height: 623 km
apogee height: 631 km
right ascension of ascending node: 142.7919°
argument of perigee: 225.5629°
revolutions per day: 14.80659581
mean anomaly at epoch: 134.4992°
orbit number at epoch: 92745

The dashed part of the orbit path shows where the satellite is in the earth's shadow,  

DLR